Lid_Strength_Index
9 8 9 9 8 8 9 9 11 9 9 7 6 5 4 4 3 3 3 3 2 2 2 2 2 2 2 1 1 1 1 1 1 1 0 0 0 0 0 0 0 -0 -0 -0
10 8 9 10 9 9 8 8 9 9 9 5 5 5 5 4 4 4 4 3 3 2 2 2 2 2 2 2 1 1 1 1 1 1 1 1 1 1 0 0 0 0 0 0
13 9 9 11 9 9 8 7 7 10 8 6 6 6 5 4 5 4 4 3 3 3 2 2 2 2 2 2 1 1 1 1 1 1 1 1 1 1 1 1 0 1 0 0
13 10 16 9 6 7 7 7 6 6 6 7 6 6 4 3 4 4 4 3 3 3 2 2 1 1 1 1 1 1 2 1 1 1 1 1 1 1 1 1 1 1 1 0
15 13 10 8 7 8 10 9 6 6 5 5 5 5 5 3 3 3 3 3 3 2 2 1 1 1 1 2 2 2 2 2 1 1 1 1 2 1 1 1 1 1 1 1
12 14 15 9 7 6 6 11 5 5 5 5 4 7 6 3 3 3 3 2 3 2 2 2 1 1 1 2 2 2 2 2 1 1 1 2 1 1 1 1 1 1 1 0
13 14 11 6 6 5 12 11 7 6 5 4 6 5 4 3 3 3 3 2 2 2 3 2 1 1 2 2 2 2 1 1 1 1 1 1 1 1 1 1 1 1 1 1
12 14 16 5 6 9 7 7 7 6 5 5 4 5 4 4 3 3 3 3 2 3 3 2 1 2 2 2 1 1 1 1 1 1 1 1 1 1 1 1 1 1 1 1
10 10 6 6 6 5 4 7 7 6 5 4 5 5 4 4 3 3 3 2 2 3 3 2 2 1 2 2 1 1 1 2 1 1 1 1 1 2 2 1 2 2 2 2
10 8 8 7 5 4 4 6 6 5 5 5 5 5 4 5 5 5 5 4 2 2 5 6 4 3 2 1 1 1 2 2 1 2 2 1 1 1 2 2 2 2 2 2
11 10 9 8 7 6 6 6 6 4 4 5 4 6 6 6 7 6 6 6 4 4 6 8 6 6 5 5 1 2 2 2 2 2 2 2 1 1 1 1 2 2 1 1
13 10 11 9 8 6 5 5 5 5 5 6 6 6 7 7 6 6 6 4 5 6 6 7 7 7 6 6 5 2 3 2 2 2 2 2 2 2 12 9 12 12 12 5
10 8 8 8 7 6 6 5 5 5 6 6 5 5 6 6 6 6 6 6 6 6 6 7 7 7 7 7 6 5 3 2 2 2 2 2 2 2 3 6 12 13 13 12
6 7 9 9 10 7 7 6 6 7 8 8 8 6 5 7 7 8 8 6 6 7 7 7 7 7 7 7 6 6 5 9 2 2 2 2 2 2 2 2 3 2 9 9
7 7 8 8 8 8 7 7 8 9 9 9 8 9 8 8 9 8 8 8 7 8 8 8 9 8 7 6 7 6 6 7 6 3 1 2 2 2 2 2 2 2 2 8
6 7 7 8 9 9 9 9 10 10 10 10 10 10 9 10 9 9 9 8 9 9 9 9 8 8 7 6 6 4 4 8 6 3 2 2 2 2 2 2 2 2 2 2
5 6 7 8 8 9 9 9 9 9 10 11 10 9 10 10 11 10 10 10 9 8 8 8 8 7 7 6 6 3 2 2 4 2 2 3 2 2 2 2 3 2 2 1
3 3 4 6 7 8 9 9 9 10 10 10 10 10 10 11 11 11 10 10 9 9 9 8 8 7 7 7 6 6 4 4 3 2 1 2 2 2 2 2 2 2 1 2
3 3 3 3 5 6 8 8 8 9 10 10 10 12 11 11 10 10 10 10 11 11 10 8 8 9 9 8 7 5 5 4 2 2 2 3 1 1 2 2 2 1 1 1
3 2 2 3 2 4 6 7 7 8 9 10 10 10 11 11 11 10 10 11 10 10 10 9 9 10 10 10 9 8 7 6 6 5 6 3 4 3 2 5 4 4 5 4
3 2 3 3 3 3 4 4 6 7 7 8 10 10 10 10 10 10 11 11 10 9 10 10 10 10 10 11 11 11 11 11 11 10 9 9 9 10 9 8 7 8 10 11
2 2 2 2 3 3 3 3 3 5 5 7 7 8 9 10 10 10 9 10 9 9 9 9 10 9 10 10 11 12 13 13 14 13 13 13 13 14 14 13 14 13 14 13
2 2 2 2 3 3 2 3 3 3 4 5 6 7 8 8 9 10 11 8 9 10 10 9 9 9 9 10 10 11 12 13 13 13 14 14 14 14 14 15 15 15 15 15
1 1 2 1 2 2 3 3 3 2 3 3 4 5 6 8 8 7 6 7 8 8 9 10 10 9 8 10 10 10 11 11 11 12 13 14 14 14 15 15 15 15 15 15
1 1 1 2 2 2 2 2 3 3 3 3 3 3 4 5 7 7 7 7 8 7 8 10 9 9 9 9 10 11 11 11 11 11 12 12 13 14 14 14 14 15 15 15
1 1 2 1 2 2 2 2 3 3 3 3 3 3 3 3 4 6 6 6 6 6 7 7 8 7 8 8 8 8 8 9 10 10 10 10 11 11 12 13 13 13 13 14
1 4 1 1 2 2 2 2 3 3 3 3 3 2 2 3 3 3 5 5 6 6 6 6 7 7 7 7 7 7 7 7 9 7 8 9 9 10 10 10 10 11 11 11